Time,TemperatureF,DewpointF,PressureIn,WindDirection,WindDirectionDegrees,WindSpeedMPH,WindSpeedGustMPH,Humidity,HourlyPrecipIn,Conditions,Clouds,dailyrainin,SoftwareType,DateUTC
2013-04-17 00:00:00,58.0,51.9,30.07,SW,225,1.0,10.0,80,0.00,,BKN100,0.00,VWS V14.01,2013-04-17 04:00:00,
2013-04-17 00:10:00,58.0,52.2,30.06,SW,225,4.0,12.0,81,0.00,,BKN100,0.00,VWS V14.01,2013-04-17 04:10:00,
2013-04-17 00:20:00,58.0,52.5,30.06,West,270,1.0,11.0,82,0.00,,BKN100,0.00,VWS V14.01,2013-04-17 04:20:00,
2013-04-17 00:30:00,58.0,52.9,30.07,SW,225,2.0,6.0,83,0.00,,BKN100,0.00,VWS V14.01,2013-04-17 04:30:00,
2013-04-17 00:40:00,58.0,52.9,30.07,WSW,247,0.0,6.0,83,0.00,,BKN100,0.00,VWS V14.01,2013-04-17 04:40:00,
2013-04-17 00:50:00,58.0,53.2,30.07,SW,225,2.0,7.0,84,0.00,,BKN100,0.00,VWS V14.01,2013-04-17 04:50:00,
2013-04-17 01:00:00,58.0,52.9,30.07,West,270,2.0,7.0,83,0.00,,BKN100,0.00,VWS V14.01,2013-04-17 05:00:00,
2013-04-17 01:10:00,58.0,52.9,30.07,West,270,1.0,7.0,83,0.00,,BKN100,0.00,VWS V14.01,2013-04-17 05:10:00,
2013-04-17 01:20:00,58.0,52.9,30.07,West,270,5.0,6.0,83,0.00,,BKN100,0.00,VWS V14.01,2013-04-17 05:20:00,
2013-04-17 01:30:00,58.0,53.2,30.08,SSW,202,0.0,5.0,84,0.00,,BKN100,0.00,VWS V14.01,2013-04-17 05:30:00,
2013-04-17 01:40:00,58.0,52.5,30.08,WSW,247,0.0,7.0,82,0.00,,BKN100,0.00,VWS V14.01,2013-04-17 05:40:00,
2013-04-17 01:50:00,58.0,51.9,30.08,SSW,202,2.0,12.0,80,0.00,,BKN100,0.00,VWS V14.01,2013-04-17 05:50:00,
2013-04-17 02:00:00,58.0,52.2,30.08,SSE,157,0.0,7.0,81,0.00,,BKN100,0.00,VWS V14.01,2013-04-17 06:00:00,
2013-04-17 02:10:00,58.0,51.9,30.08,West,270,0.0,6.0,80,0.00,,BKN100,0.00,VWS V14.01,2013-04-17 06:10:00,
2013-04-17 02:20:00,58.0,51.5,30.08,South,180,2.0,7.0,79,0.00,,BKN100,0.00,VWS V14.01,2013-04-17 06:20:00,
2013-04-17 02:30:00,58.0,51.2,30.09,West,270,0.0,6.0,78,0.00,,BKN100,0.00,VWS V14.01,2013-04-17 06:30:00,
2013-04-17 02:40:00,57.0,50.2,30.09,WNW,292,0.0,7.0,78,0.00,,BKN100,0.00,VWS V14.01,2013-04-17 06:40:00,
2013-04-17 02:50:00,57.0,50.2,30.09,WSW,247,0.0,2.0,78,0.00,,BKN100,0.00,VWS V14.01,2013-04-17 06:50:00,
2013-04-17 03:00:00,57.0,49.9,30.10,NNW,337,0.0,9.0,77,0.00,,BKN100,0.00,VWS V14.01,2013-04-17 07:00:00,
2013-04-17 03:10:00,57.0,49.9,30.10,NNW,337,2.0,4.0,77,0.00,,BKN100,0.00,VWS V14.01,2013-04-17 07:10:00,
2013-04-17 03:20:00,57.0,46.9,30.10,NNW,337,2.0,11.0,69,0.00,,BKN100,0.00,VWS V14.01,2013-04-17 07:20:00,
2013-04-17 03:30:00,57.0,46.6,30.11,NNE,22,2.0,10.0,68,0.00,,BKN100,0.00,VWS V14.01,2013-04-17 07:30:00,
2013-04-17 03:40:00,56.0,44.0,30.11,NNW,337,2.0,14.0,64,0.00,,BKN100,0.00,VWS V14.01,2013-04-17 07:40:00,
2013-04-17 03:50:00,55.0,41.8,30.12,NNW,337,1.0,9.0,61,0.00,,BKN100,0.00,VWS V14.01,2013-04-17 07:50:00,
2013-04-17 04:00:00,55.0,41.8,30.12,North,360,1.0,8.0,61,0.00,,BKN100,0.00,VWS V14.01,2013-04-17 08:00:00,
2013-04-17 04:10:00,55.0,42.2,30.12,NNW,337,3.0,7.0,62,0.00,,BKN100,0.00,VWS V14.01,2013-04-17 08:10:00,
2013-04-17 04:14:00,54.0,41.7,30.12,NNW,337,4.0,6.0,63,0.00,,BKN100,0.00,VWS V14.01,2013-04-17 08:14:00,
2013-04-17 04:15:00,54.0,41.3,30.12,NNW,337,6.0,6.0,62,0.00,,BKN100,0.00,VWS V14.01,2013-04-17 08:15:00,
2013-04-17 04:16:00,54.0,41.7,30.12,NNE,22,1.0,7.0,63,0.00,,BKN100,0.00,VWS V14.01,2013-04-17 08:16:00,
2013-04-17 04:17:00,54.0,41.7,30.12,NNE,22,2.0,7.0,63,0.00,,OVC060,0.00,VWS V14.01,2013-04-17 08:17:00,
2013-04-17 04:18:00,54.0,41.7,30.12,NNW,337,0.0,7.0,63,0.00,,OVC060,0.00,VWS V14.01,2013-04-17 08:18:00,
2013-04-17 04:19:00,54.0,41.7,30.12,NNW,337,0.0,7.0,63,0.00,,OVC060,0.00,VWS V14.01,2013-04-17 08:19:00,
2013-04-17 04:50:00,53.0,42.0,30.13,NNW,337,2.0,4.0,66,0.00,,OVC110,0.00,VWS V14.01,2013-04-17 08:50:00,
2013-04-17 05:00:00,53.0,42.0,30.13,NW,315,2.0,2.0,66,0.00,,OVC110,0.00,VWS V14.01,2013-04-17 09:00:00,
2013-04-17 05:10:00,52.0,41.0,30.13,North,360,2.0,2.0,66,0.00,,OVC110,0.00,VWS V14.01,2013-04-17 09:10:00,
2013-04-17 05:16:00,54.0,41.7,30.12,NNW,337,0.0,7.0,63,0.00,,OVC060,0.00,VWS V14.01,2013-04-17 09:16:00,
2013-04-17 05:17:00,54.0,41.7,30.12,NNW,337,0.0,7.0,63,0.00,,OVC060,0.00,VWS V14.01,2013-04-17 09:17:00,
2013-04-17 05:19:00,54.0,41.7,30.12,North,360,1.0,2.0,63,0.00,,OVC060,0.00,VWS V14.01,2013-04-17 09:19:00,
2013-04-17 05:20:00,52.0,41.4,30.14,NNE,22,1.0,2.0,67,0.00,,OVC110,0.00,VWS V14.01,2013-04-17 09:20:00,
2013-04-17 05:21:00,54.0,41.7,30.12,WSW,247,0.0,5.0,63,0.00,,OVC060,0.00,VWS V14.01,2013-04-17 09:21:00,
2013-04-17 05:22:00,54.0,41.7,30.12,NNW,337,0.0,5.0,63,0.00,,OVC060,0.00,VWS V14.01,2013-04-17 09:22:00,
2013-04-17 05:23:00,54.0,42.1,30.12,NNW,337,1.0,5.0,64,0.00,,OVC060,0.00,VWS V14.01,2013-04-17 09:23:00,
2013-04-17 05:24:00,54.0,42.1,30.12,North,360,2.0,5.0,64,0.00,,OVC060,0.00,VWS V14.01,2013-04-17 09:24:00,
2013-04-17 05:26:00,54.0,42.1,30.12,North,360,1.0,5.0,64,0.00,,OVC060,0.00,VWS V14.01,2013-04-17 09:26:00,
2013-04-17 05:27:00,54.0,42.1,30.12,North,360,0.0,5.0,64,0.00,,OVC060,0.00,VWS V14.01,2013-04-17 09:27:00,
2013-04-17 05:28:00,54.0,42.1,30.12,North,360,0.0,5.0,64,0.00,,OVC060,0.00,VWS V14.01,2013-04-17 09:28:00,
2013-04-17 05:29:00,54.0,42.1,30.12,NNE,22,1.0,2.0,64,0.00,,OVC060,0.00,VWS V14.01,2013-04-17 09:29:00,
2013-04-17 05:30:00,51.0,40.1,30.14,North,360,2.0,2.0,66,0.00,,OVC110,0.00,VWS V14.01,2013-04-17 09:30:00,
2013-04-17 05:32:00,54.0,42.5,30.12,NNW,337,0.0,2.0,65,0.00,,OVC060,0.00,VWS V14.01,2013-04-17 09:32:00,
2013-04-17 05:33:00,53.0,41.6,30.12,NNW,337,0.0,2.0,65,0.00,,OVC060,0.00,VWS V14.01,2013-04-17 09:33:00,
2013-04-17 05:34:00,53.0,41.6,30.12,NNW,337,2.0,2.0,65,0.00,,OVC060,0.00,VWS V14.01,2013-04-17 09:34:00,
2013-04-17 05:37:00,53.0,41.6,30.12,NNW,337,4.0,4.0,65,0.00,,OVC110,0.00,VWS V14.01,2013-04-17 09:37:00,
2013-04-17 05:38:00,53.0,41.6,30.12,NNE,22,1.0,4.0,65,0.00,,OVC110,0.00,VWS V14.01,2013-04-17 09:38:00,
2013-04-17 05:39:00,53.0,41.6,30.12,NNE,22,1.0,2.0,65,0.00,,OVC110,0.00,VWS V14.01,2013-04-17 09:39:00,
2013-04-17 05:40:00,51.0,40.1,30.14,NNW,337,2.0,2.0,66,0.00,,OVC110,0.00,VWS V14.01,2013-04-17 09:40:00,
2013-04-17 05:42:00,53.0,42.0,30.13,WNW,292,0.0,4.0,66,0.00,,OVC110,0.00,VWS V14.01,2013-04-17 09:42:00,
2013-04-17 05:43:00,53.0,42.0,30.13,NNW,337,5.0,6.0,66,0.00,,OVC110,0.00,VWS V14.01,2013-04-17 09:43:00,
2013-04-17 05:44:00,53.0,41.6,30.13,NNE,22,1.0,6.0,65,0.00,,OVC110,0.00,VWS V14.01,2013-04-17 09:44:00,
2013-04-17 05:47:00,53.0,41.6,30.13,NNW,337,2.0,9.0,65,0.00,,OVC110,0.00,VWS V14.01,2013-04-17 09:47:00,
2013-04-17 05:50:00,51.0,40.4,30.15,NE,45,1.0,2.0,67,0.00,,OVC110,0.00,VWS V14.01,2013-04-17 09:50:00,
2013-04-17 06:00:00,51.0,38.9,30.15,NNW,337,2.0,2.0,63,0.00,,OVC110,0.00,VWS V14.01,2013-04-17 10:00:00,
2013-04-17 06:10:00,51.0,38.5,30.16,WSW,247,2.0,2.0,62,0.00,,OVC110,0.00,VWS V14.01,2013-04-17 10:10:00,
2013-04-17 06:20:00,51.0,37.2,30.17,NNE,22,1.0,2.0,59,0.00,,OVC110,0.00,VWS V14.01,2013-04-17 10:20:00,
2013-04-17 06:30:00,52.0,36.8,30.18,ENE,67,2.0,2.0,56,0.00,,OVC110,0.00,VWS V14.01,2013-04-17 10:30:00,
2013-04-17 06:40:00,52.0,35.4,30.17,NNW,337,3.0,3.0,53,0.00,,OVC110,0.00,VWS V14.01,2013-04-17 10:40:00,
2013-04-17 06:50:00,52.0,35.4,30.18,NNW,337,3.0,3.0,53,0.00,,OVC110,0.00,VWS V14.01,2013-04-17 10:50:00,
2013-04-17 07:00:00,52.0,34.0,30.18,NE,45,4.0,4.0,50,0.00,,OVC110,0.00,VWS V14.01,2013-04-17 11:00:00,
2013-04-17 07:10:00,52.0,32.9,30.18,NW,315,5.0,5.0,48,0.00,,OVC110,0.00,VWS V14.01,2013-04-17 11:10:00,
2013-04-17 07:20:00,53.0,34.9,30.19,NW,315,3.0,5.0,50,0.00,,OVC110,0.00,VWS V14.01,2013-04-17 11:20:00,
2013-04-17 07:30:00,53.0,30.5,30.20,NNW,337,3.0,3.0,42,0.00,,OVC110,0.00,VWS V14.01,2013-04-17 11:30:00,
2013-04-17 07:40:00,54.0,32.0,30.21,NNW,337,2.0,3.0,43,0.00,,OVC110,0.00,VWS V14.01,2013-04-17 11:40:00,
2013-04-17 07:50:00,54.0,30.9,30.21,NNW,337,2.0,2.0,41,0.00,,OVC110,0.00,VWS V14.01,2013-04-17 11:50:00,
2013-04-17 08:00:00,54.0,30.9,30.20,NNW,337,3.0,3.0,41,0.00,,OVC110,0.00,VWS V14.01,2013-04-17 12:00:00,
2013-04-17 08:10:00,55.0,31.1,30.21,North,360,3.0,3.0,40,0.00,,OVC110,0.00,VWS V14.01,2013-04-17 12:10:00,
2013-04-17 08:20:00,55.0,29.9,30.22,NW,315,3.0,3.0,38,0.00,,OVC110,0.00,VWS V14.01,2013-04-17 12:20:00,
2013-04-17 08:30:00,55.0,30.5,30.21,NNW,337,4.0,4.0,39,0.00,,OVC110,0.00,VWS V14.01,2013-04-17 12:30:00,
2013-04-17 08:40:00,55.0,30.5,30.21,NNE,22,4.0,4.0,39,0.00,,OVC110,0.00,VWS V14.01,2013-04-17 12:40:00,
2013-04-17 08:50:00,56.0,31.4,30.21,WNW,292,2.0,4.0,39,0.00,,OVC110,0.00,VWS V14.01,2013-04-17 12:50:00,
2013-04-17 09:00:00,57.0,31.0,30.22,North,360,3.0,3.0,37,0.00,,OVC110,0.00,VWS V14.01,2013-04-17 13:00:00,
2013-04-17 09:10:00,56.0,30.8,30.22,NNW,337,4.0,4.0,38,0.00,,OVC110,0.00,VWS V14.01,2013-04-17 13:10:00,
2013-04-17 09:20:00,57.0,30.3,30.21,NNW,337,4.0,4.0,36,0.00,,OVC110,0.00,VWS V14.01,2013-04-17 13:20:00,
2013-04-17 09:30:00,57.0,31.0,30.22,NNW,337,3.0,4.0,37,0.00,,OVC110,0.00,VWS V14.01,2013-04-17 13:30:00,
2013-04-17 09:40:00,58.0,31.2,30.22,NNW,337,2.0,3.0,36,0.00,,OVC110,0.00,VWS V14.01,2013-04-17 13:40:00,
2013-04-17 09:50:00,58.0,30.5,30.22,North,360,3.0,3.0,35,0.00,,OVC110,0.00,VWS V14.01,2013-04-17 13:50:00,
2013-04-17 10:00:00,59.0,31.4,30.22,WNW,292,2.0,3.0,35,0.00,,OVC110,0.00,VWS V14.01,2013-04-17 14:00:00,
2013-04-17 10:10:00,59.0,31.4,30.22,North,360,2.0,2.0,35,0.00,,OVC110,0.00,VWS V14.01,2013-04-17 14:10:00,
2013-04-17 10:20:00,60.0,30.1,30.22,West,270,3.0,3.0,32,0.00,,OVC110,0.00,VWS V14.01,2013-04-17 14:20:00,
2013-04-17 10:30:00,60.0,30.8,30.22,West,270,3.0,3.0,33,0.00,,OVC110,0.00,VWS V14.01,2013-04-17 14:30:00,
2013-04-17 10:40:00,60.0,30.1,30.22,WNW,292,4.0,4.0,32,0.00,,OVC110,0.00,VWS V14.01,2013-04-17 14:40:00,
2013-04-17 10:50:00,59.0,28.4,30.22,North,360,4.0,4.0,31,0.00,,OVC110,0.00,VWS V14.01,2013-04-17 14:50:00,
2013-04-17 11:00:00,61.0,29.4,30.22,NNW,337,2.0,4.0,30,0.00,,OVC110,0.00,VWS V14.01,2013-04-17 15:00:00,
2013-04-17 11:10:00,61.0,30.2,30.22,NNW,337,3.0,3.0,31,0.00,,OVC110,0.00,VWS V14.01,2013-04-17 15:10:00,
2013-04-17 11:20:00,61.0,29.4,30.22,WNW,292,2.0,3.0,30,0.00,,OVC110,0.00,VWS V14.01,2013-04-17 15:20:00,
2013-04-17 11:30:00,61.0,30.2,30.22,NW,315,3.0,3.0,31,0.00,,OVC110,0.00,VWS V14.01,2013-04-17 15:30:00,
2013-04-17 11:40:00,61.0,30.2,30.22,NNW,337,4.0,4.0,31,0.00,,OVC110,0.00,VWS V14.01,2013-04-17 15:40:00,
2013-04-17 11:50:00,61.0,29.4,30.22,NNE,22,4.0,4.0,30,0.00,,OVC110,0.00,VWS V14.01,2013-04-17 15:50:00,
2013-04-17 12:00:00,62.0,30.2,30.22,North,360,3.0,4.0,30,0.00,,OVC110,0.00,VWS V14.01,2013-04-17 16:00:00,
2013-04-17 12:10:00,63.0,31.1,30.22,NNE,22,2.0,3.0,30,0.00,,OVC110,0.00,VWS V14.01,2013-04-17 16:10:00,
2013-04-17 12:20:00,63.0,29.4,30.22,North,360,3.0,3.0,28,0.00,,OVC110,0.00,VWS V14.01,2013-04-17 16:20:00,
2013-04-17 12:30:00,63.0,29.4,30.22,North,360,3.0,3.0,28,0.00,,OVC110,0.00,VWS V14.01,2013-04-17 16:30:00,
2013-04-17 12:40:00,64.0,29.4,30.22,WSW,247,3.0,3.0,27,0.00,,OVC110,0.00,VWS V14.01,2013-04-17 16:40:00,
2013-04-17 12:50:00,64.0,29.4,30.22,NNE,22,2.0,3.0,27,0.00,,OVC110,0.00,VWS V14.01,2013-04-17 16:50:00,
2013-04-17 13:00:00,64.0,29.4,30.21,West,270,3.0,3.0,27,0.00,,OVC110,0.00,VWS V14.01,2013-04-17 17:00:00,
2013-04-17 13:10:00,64.0,29.4,30.22,North,360,3.0,3.0,27,0.00,,OVC110,0.00,VWS V14.01,2013-04-17 17:10:00,
2013-04-17 13:20:00,65.0,28.4,30.21,NE,45,2.0,3.0,25,0.00,,OVC110,0.00,VWS V14.01,2013-04-17 17:20:00,
2013-04-17 13:30:00,64.0,29.4,30.21,NNE,22,4.0,4.0,27,0.00,,OVC110,0.00,VWS V14.01,2013-04-17 17:30:00,
2013-04-17 13:40:00,66.0,30.2,30.22,NE,45,2.0,4.0,26,0.00,,OVC110,0.00,VWS V14.01,2013-04-17 17:40:00,
2013-04-17 13:50:00,65.0,30.2,30.22,NNW,337,3.0,3.0,27,0.00,,OVC110,0.00,VWS V14.01,2013-04-17 17:50:00,
2013-04-17 14:00:00,67.0,30.0,30.22,North,360,1.0,3.0,25,0.00,,OVC110,0.00,VWS V14.01,2013-04-17 18:00:00,
2013-04-17 14:10:00,66.0,29.2,30.23,WNW,292,3.0,3.0,25,0.00,,OVC110,0.00,VWS V14.01,2013-04-17 18:10:00,
2013-04-17 14:20:00,67.0,30.0,30.23,NW,315,1.0,3.0,25,0.00,,OVC110,0.00,VWS V14.01,2013-04-17 18:20:00,
2013-04-17 14:30:00,66.0,29.2,30.22,North,360,3.0,3.0,25,0.00,,OVC110,0.00,VWS V14.01,2013-04-17 18:30:00,
2013-04-17 14:40:00,66.0,30.2,30.23,NNW,337,2.0,3.0,26,0.00,,OVC110,0.00,VWS V14.01,2013-04-17 18:40:00,
2013-04-17 14:50:00,67.0,30.0,30.23,NW,315,2.0,2.0,25,0.00,,OVC110,0.00,VWS V14.01,2013-04-17 18:50:00,
2013-04-17 15:00:00,66.0,29.2,30.24,NNW,337,2.0,2.0,25,0.00,,OVC110,0.00,VWS V14.01,2013-04-17 19:00:00,
2013-04-17 15:10:00,67.0,32.0,30.24,SSE,157,2.0,2.0,27,0.00,,OVC110,0.00,VWS V14.01,2013-04-17 19:10:00,
2013-04-17 15:20:00,67.0,30.0,30.24,NE,45,2.0,2.0,25,0.00,,OVC110,0.00,VWS V14.01,2013-04-17 19:20:00,
2013-04-17 15:30:00,66.0,30.2,30.24,WNW,292,3.0,3.0,26,0.00,,OVC110,0.00,VWS V14.01,2013-04-17 19:30:00,
2013-04-17 15:40:00,67.0,30.0,30.24,NW,315,2.0,3.0,25,0.00,,OVC110,0.00,VWS V14.01,2013-04-17 19:40:00,
2013-04-17 15:50:00,67.0,30.0,30.25,NNE,22,2.0,2.0,25,0.00,,OVC110,0.00,VWS V14.01,2013-04-17 19:50:00,
2013-04-17 16:00:00,66.0,29.2,30.25,ENE,67,2.0,2.0,25,0.00,,OVC110,0.00,VWS V14.01,2013-04-17 20:00:00,
2013-04-17 16:10:00,66.0,29.2,30.25,North,360,2.0,2.0,25,0.00,,OVC110,0.00,VWS V14.01,2013-04-17 20:10:00,
2013-04-17 16:20:00,66.0,29.2,30.26,WNW,292,2.0,2.0,25,0.00,,OVC110,0.00,VWS V14.01,2013-04-17 20:20:00,
2013-04-17 16:30:00,66.0,29.2,30.27,NNE,22,2.0,2.0,25,0.00,,OVC110,0.00,VWS V14.01,2013-04-17 20:30:00,
2013-04-17 16:40:00,66.0,29.2,30.27,NNE,22,1.0,2.0,25,0.00,,OVC110,0.00,VWS V14.01,2013-04-17 20:40:00,
2013-04-17 16:50:00,64.0,27.5,30.28,NNE,22,2.0,2.0,25,0.00,,OVC110,0.00,VWS V14.01,2013-04-17 20:50:00,
2013-04-17 17:00:00,64.0,28.5,30.28,North,360,2.0,2.0,26,0.00,,OVC110,0.00,VWS V14.01,2013-04-17 21:00:00,
2013-04-17 17:10:00,63.0,26.6,30.28,North,360,2.0,2.0,25,0.00,,OVC110,0.00,VWS V14.01,2013-04-17 21:10:00,
2013-04-17 17:20:00,63.0,27.6,30.28,North,360,1.0,2.0,26,0.00,,OVC110,0.00,VWS V14.01,2013-04-17 21:20:00,
2013-04-17 17:30:00,62.0,27.7,30.29,NE,45,2.0,2.0,27,0.00,,OVC110,0.00,VWS V14.01,2013-04-17 21:30:00,
2013-04-17 17:40:00,61.0,28.5,30.29,North,360,1.0,2.0,29,0.00,,OVC110,0.00,VWS V14.01,2013-04-17 21:40:00,
2013-04-17 17:50:00,60.0,27.7,30.29,NW,315,1.0,1.0,29,0.00,,OVC110,0.00,VWS V14.01,2013-04-17 21:50:00,
2013-04-17 18:00:00,59.0,27.6,30.29,North,360,1.0,1.0,30,0.00,,OVC110,0.00,VWS V14.01,2013-04-17 22:00:00,
2013-04-17 18:10:00,59.0,28.4,30.30,NW,315,1.0,1.0,31,0.00,,OVC110,0.00,VWS V14.01,2013-04-17 22:10:00,
2013-04-17 18:20:00,58.0,28.3,30.30,NNE,22,1.0,1.0,32,0.00,,OVC110,0.00,VWS V14.01,2013-04-17 22:20:00,
2013-04-17 18:30:00,57.0,28.2,30.29,North,360,0.0,1.0,33,0.00,,OVC110,0.00,VWS V14.01,2013-04-17 22:30:00,
2013-04-17 18:31:00,57.0,28.2,30.29,NNW,337,2.0,4.0,33,0.00,,OVC110,0.00,VWS V14.01,2013-04-17 22:31:00,
2013-04-17 18:32:00,57.0,29.6,30.29,North,360,0.0,4.0,35,0.00,,CLR,0.00,VWS V14.01,2013-04-17 22:32:00,
2013-04-17 18:33:00,57.0,28.9,30.30,ENE,67,0.0,4.0,34,0.00,,CLR,0.00,VWS V14.01,2013-04-17 22:33:00,
2013-04-17 18:34:00,57.0,29.6,30.30,ENE,67,0.0,4.0,35,0.00,,CLR,0.00,VWS V14.01,2013-04-17 22:34:00,
2013-04-17 18:35:00,57.0,28.9,30.30,ENE,67,0.0,4.0,34,0.00,,CLR,0.00,VWS V14.01,2013-04-17 22:35:00,
2013-04-17 18:40:00,56.0,28.0,30.30,NNW,337,0.0,2.0,34,0.00,,CLR,0.00,VWS V14.01,2013-04-17 22:40:00,
2013-04-17 18:41:00,56.0,28.0,30.30,NNW,337,1.0,2.0,34,0.00,,CLR,0.00,VWS V14.01,2013-04-17 22:41:00,
2013-04-17 18:42:00,56.0,28.0,30.30,NNW,337,0.0,2.0,34,0.00,,CLR,0.00,VWS V14.01,2013-04-17 22:42:00,
2013-04-17 18:43:00,56.0,28.8,30.30,NNW,337,0.0,2.0,35,0.00,,CLR,0.00,VWS V14.01,2013-04-17 22:43:00,
2013-04-17 18:44:00,56.0,28.8,30.30,NNW,337,0.0,2.0,35,0.00,,CLR,0.00,VWS V14.01,2013-04-17 22:44:00,
2013-04-17 19:31:00,57.0,29.6,30.29,ENE,67,0.0,4.0,35,0.00,,CLR,0.00,VWS V14.01,2013-04-17 23:31:00,
2013-04-17 19:33:00,57.0,29.6,30.30,ENE,67,0.0,4.0,35,0.00,,CLR,0.00,VWS V14.01,2013-04-17 23:33:00,
2013-04-17 19:34:00,57.0,28.9,30.30,ENE,67,0.0,4.0,34,0.00,,CLR,0.00,VWS V14.01,2013-04-17 23:34:00,
2013-04-17 19:37:00,57.0,28.9,30.30,North,360,0.0,4.0,34,0.00,,CLR,0.00,VWS V14.01,2013-04-17 23:37:00,
2013-04-17 19:38:00,56.0,28.0,30.30,North,360,0.0,4.0,34,0.00,,CLR,0.00,VWS V14.01,2013-04-17 23:38:00,
2013-04-17 19:39:00,56.0,28.0,30.30,NNW,337,0.0,2.0,34,0.00,,CLR,0.00,VWS V14.01,2013-04-17 23:39:00,
2013-04-17 19:42:00,56.0,28.8,30.30,NNW,337,0.0,2.0,35,0.00,,CLR,0.00,VWS V14.01,2013-04-17 23:42:00,
2013-04-17 19:43:00,56.0,28.8,30.30,North,360,0.0,2.0,35,0.00,,CLR,0.00,VWS V14.01,2013-04-17 23:43:00,
2013-04-17 19:44:00,56.0,28.8,30.30,North,360,0.0,2.0,35,0.00,,CLR,0.00,VWS V14.01,2013-04-17 23:44:00,
2013-04-17 19:47:00,56.0,28.8,30.31,North,360,0.0,2.0,35,0.00,,CLR,0.00,VWS V14.01,2013-04-17 23:47:00,
2013-04-17 19:48:00,56.0,29.4,30.31,North,360,0.0,2.0,36,0.00,,CLR,0.00,VWS V14.01,2013-04-17 23:48:00,
2013-04-17 19:49:00,56.0,29.4,30.31,North,360,0.0,0.0,36,0.00,,CLR,0.00,VWS V14.01,2013-04-17 23:49:00,
2013-04-17 19:52:00,56.0,29.4,30.31,North,360,0.0,0.0,36,0.00,,CLR,0.00,VWS V14.01,2013-04-17 23:52:00,
2013-04-17 19:54:00,55.0,28.6,30.31,North,360,0.0,0.0,36,0.00,,CLR,0.00,VWS V14.01,2013-04-17 23:54:00,
2013-04-17 19:57:00,55.0,28.6,30.31,North,360,0.0,0.0,36,0.00,,CLR,0.00,VWS V14.01,2013-04-17 23:57:00,
2013-04-17 19:59:00,55.0,28.6,30.31,North,360,0.0,0.0,36,0.00,,CLR,0.00,VWS V14.01,2013-04-17 23:59:00,
2013-04-17 20:02:00,55.0,28.6,30.31,NNE,22,0.0,2.0,36,0.00,,CLR,0.00,VWS V14.01,2013-04-18 00:02:00,
2013-04-17 20:04:00,55.0,29.2,30.31,North,360,0.0,2.0,37,0.00,,CLR,0.00,VWS V14.01,2013-04-18 00:04:00,
2013-04-17 20:07:00,55.0,31.1,30.32,North,360,0.0,2.0,40,0.00,,CLR,0.00,VWS V14.01,2013-04-18 00:07:00,
2013-04-17 20:09:00,54.0,29.6,30.32,North,360,0.0,0.0,39,0.00,,CLR,0.00,VWS V14.01,2013-04-18 00:09:00,
2013-04-17 20:10:00,52.0,30.2,30.35,NE,45,0.0,0.0,43,0.00,,CLR,0.00,VWS V14.01,2013-04-18 00:10:00,
2013-04-17 20:12:00,54.0,29.6,30.32,North,360,0.0,1.0,39,0.00,,CLR,0.00,VWS V14.01,2013-04-18 00:12:00,
2013-04-17 20:14:00,54.0,30.2,30.32,North,360,0.0,1.0,40,0.00,,CLR,0.00,VWS V14.01,2013-04-18 00:14:00,
2013-04-17 20:15:00,54.0,29.6,30.32,North,360,0.0,1.0,39,0.00,,CLR,0.00,VWS V14.01,2013-04-18 00:15:00,
2013-04-17 20:17:00,54.0,30.2,30.33,North,360,0.0,1.0,40,0.00,,CLR,0.00,VWS V14.01,2013-04-18 00:17:00,
2013-04-17 20:19:00,54.0,30.9,30.33,NE,45,0.0,0.0,41,0.00,,CLR,0.00,VWS V14.01,2013-04-18 00:19:00,
2013-04-17 20:20:00,54.0,29.6,30.33,NE,45,0.0,0.0,39,0.00,,CLR,0.00,VWS V14.01,2013-04-18 00:20:00,
2013-04-17 20:23:00,54.0,30.9,30.33,NE,45,0.0,2.0,41,0.00,,CLR,0.00,VWS V14.01,2013-04-18 00:23:00,
2013-04-17 20:24:00,54.0,29.6,30.33,North,360,0.0,2.0,39,0.00,,CLR,0.00,VWS V14.01,2013-04-18 00:24:00,
2013-04-17 20:25:00,54.0,30.2,30.33,North,360,0.0,2.0,40,0.00,,CLR,0.00,VWS V14.01,2013-04-18 00:25:00,
2013-04-17 20:28:00,54.0,30.9,30.33,North,360,0.0,2.0,41,0.00,,CLR,0.00,VWS V14.01,2013-04-18 00:28:00,
2013-04-17 20:29:00,54.0,30.2,30.33,North,360,0.0,0.0,40,0.00,,CLR,0.00,VWS V14.01,2013-04-18 00:29:00,
2013-04-17 20:30:00,53.0,30.5,30.33,North,360,0.0,0.0,42,0.00,,CLR,0.00,VWS V14.01,2013-04-18 00:30:00,
2013-04-17 20:33:00,53.0,30.5,30.33,North,360,0.0,0.0,42,0.00,,CLR,0.00,VWS V14.01,2013-04-18 00:33:00,
2013-04-17 20:34:00,53.0,30.5,30.33,North,360,0.0,0.0,42,0.00,,CLR,0.00,VWS V14.01,2013-04-18 00:34:00,
2013-04-17 20:35:00,53.0,30.5,30.33,North,360,0.0,0.0,42,0.00,,CLR,0.00,VWS V14.01,2013-04-18 00:35:00,
2013-04-17 20:38:00,53.0,30.0,30.33,WNW,292,0.0,2.0,41,0.00,,CLR,0.00,VWS V14.01,2013-04-18 00:38:00,
2013-04-17 20:39:00,53.0,30.0,30.33,WNW,292,0.0,0.0,41,0.00,,CLR,0.00,VWS V14.01,2013-04-18 00:39:00,
2013-04-17 20:40:00,53.0,30.0,30.33,WNW,292,0.0,0.0,41,0.00,,CLR,0.00,VWS V14.01,2013-04-18 00:40:00,
2013-04-17 20:43:00,53.0,30.5,30.33,NNW,337,0.0,0.0,42,0.00,,CLR,0.00,VWS V14.01,2013-04-18 00:43:00,
2013-04-17 20:45:00,53.0,30.5,30.33,NNW,337,0.0,0.0,42,0.00,,CLR,0.00,VWS V14.01,2013-04-18 00:45:00,
2013-04-17 20:48:00,53.0,30.0,30.33,NE,45,0.0,2.0,41,0.00,,CLR,0.00,VWS V14.01,2013-04-18 00:48:00,
2013-04-17 20:50:00,53.0,30.5,30.33,NE,45,0.0,0.0,42,0.00,,CLR,0.00,VWS V14.01,2013-04-18 00:50:00,
2013-04-17 20:51:00,53.0,31.1,30.33,NE,45,0.0,0.0,43,0.00,,CLR,0.00,VWS V14.01,2013-04-18 00:51:00,
2013-04-17 20:53:00,53.0,31.1,30.34,NE,45,0.0,0.0,43,0.00,,CLR,0.00,VWS V14.01,2013-04-18 00:53:00,
2013-04-17 20:55:00,52.0,30.2,30.34,ENE,67,2.0,2.0,43,0.00,,CLR,0.00,VWS V14.01,2013-04-18 00:55:00,
2013-04-17 20:56:00,52.0,29.6,30.34,ENE,67,0.0,2.0,42,0.00,,CLR,0.00,VWS V14.01,2013-04-18 00:56:00,
2013-04-17 20:58:00,52.0,29.6,30.34,NE,45,0.0,2.0,42,0.00,,CLR,0.00,VWS V14.01,2013-04-18 00:58:00,
2013-04-17 21:00:00,52.0,29.6,30.34,NE,45,0.0,0.0,42,0.00,,CLR,0.00,VWS V14.01,2013-04-18 01:00:00,
2013-04-17 21:01:00,52.0,29.6,30.34,NE,45,0.0,0.0,42,0.00,,CLR,0.00,VWS V14.01,2013-04-18 01:01:00,
2013-04-17 21:02:00,52.0,29.6,30.34,NE,45,0.0,0.0,42,0.00,,CLR,0.00,VWS V14.01,2013-04-18 01:02:00,
2013-04-17 21:03:00,52.0,30.2,30.34,NE,45,0.0,0.0,43,0.00,,CLR,0.00,VWS V14.01,2013-04-18 01:03:00,
2013-04-17 21:10:00,47.0,31.7,30.34,NNE,22,0.0,0.0,55,0.00,,CLR,0.00,VWS V14.01,2013-04-18 01:10:00,
2013-04-17 21:20:00,46.0,31.6,30.33,NNE,22,0.0,0.0,57,0.00,,CLR,0.00,VWS V14.01,2013-04-18 01:20:00,
2013-04-17 21:30:00,46.0,32.5,30.33,NNE,22,0.0,0.0,59,0.00,,CLR,0.00,VWS V14.01,2013-04-18 01:30:00,
2013-04-17 21:40:00,45.0,32.0,30.33,NNE,22,0.0,0.0,60,0.00,,CLR,0.00,VWS V14.01,2013-04-18 01:40:00,
2013-04-17 21:50:00,44.0,31.8,30.33,NNE,22,0.0,0.0,62,0.00,,CLR,0.00,VWS V14.01,2013-04-18 01:50:00,
2013-04-17 22:00:00,43.0,32.1,30.34,NNE,22,0.0,0.0,65,0.00,,CLR,0.00,VWS V14.01,2013-04-18 02:00:00,
2013-04-17 22:10:00,43.0,32.1,30.33,NNE,22,0.0,0.0,65,0.00,,CLR,0.00,VWS V14.01,2013-04-18 02:10:00,
2013-04-17 22:20:00,42.0,31.1,30.33,NNE,22,0.0,0.0,65,0.00,,CLR,0.00,VWS V14.01,2013-04-18 02:20:00,
2013-04-17 22:30:00,41.0,32.3,30.33,NNE,22,0.0,0.0,71,0.00,,CLR,0.00,VWS V14.01,2013-04-18 02:30:00,
2013-04-17 22:40:00,41.0,32.7,30.33,NNE,22,0.0,0.0,72,0.00,,CLR,0.00,VWS V14.01,2013-04-18 02:40:00,
2013-04-17 22:50:00,40.0,32.4,30.33,NNE,22,0.0,0.0,74,0.00,,CLR,0.00,VWS V14.01,2013-04-18 02:50:00,
2013-04-17 23:00:00,40.0,33.4,30.34,NNE,22,0.0,0.0,77,0.00,,CLR,0.00,VWS V14.01,2013-04-18 03:00:00,
2013-04-17 23:10:00,39.0,32.4,30.34,NNE,22,0.0,0.0,77,0.00,,CLR,0.00,VWS V14.01,2013-04-18 03:10:00,
2013-04-17 23:20:00,39.0,33.0,30.35,NNE,22,0.0,0.0,79,0.00,,CLR,0.00,VWS V14.01,2013-04-18 03:20:00,
2013-04-17 23:30:00,38.0,32.7,30.35,NNE,22,0.0,0.0,81,0.00,,CLR,0.00,VWS V14.01,2013-04-18 03:30:00,
2013-04-17 23:40:00,38.0,32.7,30.36,NNE,22,0.0,0.0,81,0.00,,CLR,0.00,VWS V14.01,2013-04-18 03:40:00,
2013-04-17 23:50:00,37.0,32.3,30.37,NNE,22,0.0,0.0,83,0.00,,CLR,0.00,VWS V14.01,2013-04-18 03:50:00,